Location: Delettes
(50.6178°N, 2.2123°E)
Time: 20:12:06
(UTC+00:00)

USA 186 - Pass Details

Date: 27 February 2020
Orbit: 266 x 454 km, 96.9° (Epoch: 27 March)

Event Time Altitude Azimuth Distance (km) Brightness Sun altitude
Exits shadow 19:05:42 52° 74° (ENE) 440 1.4 -16.2°
Maximum altitude 19:05:43 52° 73° (ENE) 440 1.4 -16.2°
Drops below altitude 10° 19:08:33 10° 356° (N) 1,370 4.5 -16.7°
Sets 19:10:37 0° 352° (N) 2,265 5.7 -17.0°
